Retour au catalogue

SL-14 DEB

ActifPO
NORAD 19139·DEBRIS·🇷🇺 Russia

Lancé Oct 26, 1978 depuis Plesetsk Cosmodrome

Loading…

Prochains Passages (prochaines 24 heures)

TLE

FraisSource: Space-Track

Époque: Sep 14, 2026, 07:30 UTC

1 19139U 78100M   26257.31274610  .00000117  00000-0  18826-2 0  9991
2 19139  82.1485 345.3195 0151449 172.1489 299.2763 11.70455793637555

Suivez SL-14 DEB en temps réel avec AllMySat

Download on the App Store